Wind_Speed
48 48 47 45 43 41 40 37 35 33 32 28 22 18 16 16 20 37 44 42 42 40 37 36 32 29 26 25 25 27 25 23 20 18 21 22 23 18 20 19 27 27 30 34 34
45 46 47 46 46 45 44 41 40 38 36 35 31 25 22 21 22 23 37 44 45 43 40 38 36 33 31 30 28 29 26 24 24 21 23 23 21 22 21 25 25 26 29 34 41
42 44 45 45 47 48 47 46 44 43 41 39 37 34 29 27 26 27 26 32 44 47 45 42 41 38 35 32 30 30 29 28 25 24 21 23 26 18 22 25 23 27 33 36 40
43 44 45 46 47 47 49 49 48 46 45 44 43 41 36 34 32 31 30 29 33 39 50 50 45 43 40 38 35 33 32 31 29 26 23 23 23 25 22 20 24 27 27 36 39
46 47 48 48 49 50 50 51 51 50 50 49 49 47 43 40 40 37 37 34 34 33 38 48 49 48 44 43 41 38 36 35 35 33 31 28 30 29 29 29 28 25 35 38 41
48 49 50 51 52 53 54 54 54 53 53 52 52 51 49 46 46 43 42 40 38 36 36 37 43 48 49 50 47 45 44 42 39 37 35 36 37 34 34 32 31 31 36 36 28
50 51 52 53 54 56 57 57 56 55 55 53 53 52 51 49 50 49 47 46 43 42 40 39 37 38 46 49 50 52 49 47 44 43 40 39 37 35 34 32 32 34 35 24 14
56 56 57 56 56 57 59 59 59 59 58 58 58 57 55 54 53 52 52 52 50 47 45 42 39 38 37 42 43 51 53 51 50 48 47 43 41 40 36 34 35 35 25 12 10
64 63 64 65 64 64 64 63 62 61 61 62 63 63 63 61 59 58 56 56 55 53 50 47 45 43 41 39 35 39 45 53 54 52 48 46 45 43 40 38 36 26 16 7 7
65 64 65 68 70 71 71 72 71 69 68 68 67 68 67 68 67 65 64 61 60 59 54 52 50 48 46 45 45 45 49 48 53 52 52 48 45 42 36 31 23 18 9 3 4
63 64 65 68 71 72 73 74 74 75 76 76 77 76 75 73 72 72 72 69 66 63 61 60 56 55 57 54 52 48 47 42 42 41 39 39 39 34 26 22 20 17 10 5 4
62 62 62 63 65 67 70 72 75 77 75 79 82 83 84 84 81 79 77 76 74 70 69 65 60 67 61 56 55 52 51 47 42 37 36 34 32 25 27 22 23 21 15 11 6
62 65 66 66 67 67 71 72 71 72 72 75 80 84 88 89 89 89 86 83 80 78 74 70 73 69 68 62 59 55 55 57 50 44 40 35 30 29 28 28 28 21 17 12 8
65 65 64 64 67 69 71 74 74 74 74 73 76 83 88 90 92 95 94 94 89 85 82 76 77 74 73 66 63 59 61 64 59 52 47 40 36 34 29 29 28 22 19 16 12
62 64 66 68 70 71 72 74 77 80 81 81 82 87 91 86 93 97 99 98 98 94 88 81 84 80 76 75 72 69 66 70 67 57 53 44 39 37 30 30 31 28 23 18 14
58 62 61 62 65 69 70 74 77 81 83 86 86 88 91 93 91 96 101 101 103 101 97 92 89 85 80 84 80 81 75 76 73 64 53 50 43 39 34 38 36 31 25 21 17
57 61 66 68 70 71 73 75 78 81 85 84 87 88 88 91 93 92 97 102 103 106 104 102 98 92 87 90 87 85 80 79 79 67 50 55 48 45 44 44 41 34 30 24 19
67 70 71 72 74 77 78 80 81 82 83 83 83 81 81 83 86 88 89 97 104 106 109 108 107 101 96 93 90 90 86 82 78 70 58 58 48 47 48 50 45 40 35 26 25
74 74 76 74 75 77 79 77 75 75 75 73 74 74 75 79 83 88 90 92 98 108 109 113 112 108 106 103 98 95 88 81 87 77 67 57 54 54 56 53 48 45 39 35 33
73 73 72 71 70 70 69 67 66 69 70 70 70 66 65 67 73 79 84 90 95 100 109 112 113 115 113 110 105 99 94 95 89 80 70 65 60 57 60 59 57 52 46 41 37
53 53 54 56 57 58 58 61 63 61 59 57 56 57 57 59 64 70 75 83 91 98 104 110 115 117 119 115 113 106 103 95 90 83 73 68 62 63 63 66 61 56 53 48 42
43 44 46 49 52 56 56 55 51 46 45 44 47 49 51 54 56 62 69 76 85 94 103 106 112 118 121 119 119 116 108 101 96 83 77 73 67 69 70 68 65 60 55 50 42
43 45 48 48 50 49 44 39 37 38 39 40 44 47 50 53 55 61 66 73 80 87 98 106 109 111 122 126 124 123 116 107 94 89 83 77 68 72 75 72 62 61 56 51 44
45 46 44 43 40 34 33 34 35 38 40 43 45 45 47 52 58 61 65 70 77 82 91 101 106 113 120 129 128 127 121 114 102 95 84 80 74 76 77 75 68 65 62 55 45
34 34 31 23 22 26 30 34 38 39 42 45 48 45 47 52 56 57 58 64 71 76 84 94 101 109 118 126 127 128 123 116 106 96 86 82 79 82 81 81 75 67 62 54 46
15 14 15 16 21 27 32 36 37 41 45 49 47 49 46 43 46 47 49 55 63 69 78 83 91 100 112 122 125 128 125 118 109 99 89 84 81 85 86 81 76 67 60 53 46
12 11 15 20 25 29 33 38 40 41 50 44 43 43 38 35 36 39 42 47 53 60 67 74 87 94 107 119 124 125 124 117 112 104 95 88 84 87 89 83 78 71 63 56 52
Wind_Direction
252 255 257 258 259 260 263 265 264 268 272 272 263 256 246 237 221 217 217 220 223 222 226 229 231 235 233 224 215 217 222 233 237 233 224 237 245 230 237 230 262 288 305 311 322
254 256 256 257 257 258 259 261 261 263 266 268 267 252 247 243 238 225 221 224 225 226 228 228 231 229 234 231 223 221 225 231 235 233 241 236 242 254 255 263 279 297 302 307 314
255 256 256 257 257 258 259 259 258 260 263 263 264 261 246 243 246 231 232 224 229 228 227 230 232 233 233 236 236 228 232 228 237 241 238 240 241 254 264 271 280 296 303 303 312
259 258 258 258 258 258 258 258 258 258 261 261 261 260 252 246 245 239 231 234 230 227 231 229 231 234 235 235 235 234 233 232 230 239 243 237 248 246 253 274 275 292 292 305 316
259 259 259 259 259 258 257 257 258 259 260 258 256 256 255 251 246 236 236 231 236 236 229 231 232 232 233 235 236 237 237 237 236 233 233 234 242 251 260 273 283 283 291 306 310
263 262 261 261 260 260 258 257 257 259 259 258 257 254 252 248 247 238 236 234 235 236 236 232 231 232 233 235 237 237 237 239 239 239 239 237 243 249 260 270 278 287 296 302 306
264 263 262 261 260 259 259 257 256 256 256 256 256 254 252 250 247 243 238 234 234 237 235 236 229 227 231 234 237 239 241 241 243 245 244 248 250 254 258 266 274 281 292 292 310
264 264 264 263 262 261 260 259 258 256 255 254 254 253 252 251 250 245 240 237 233 234 236 236 237 236 230 231 234 238 240 242 242 243 247 248 251 256 262 268 275 281 281 269 322
262 261 262 262 260 259 259 258 257 256 255 254 253 252 251 249 249 249 245 238 236 234 233 234 237 238 235 231 231 236 236 239 241 241 244 247 252 257 263 267 270 267 245 269 317
264 263 262 263 262 261 259 258 257 255 255 254 253 252 250 249 248 247 246 243 238 234 235 236 236 236 238 234 226 229 234 233 239 241 244 245 249 254 258 261 247 225 229 287 292
264 263 263 262 262 261 261 259 258 256 255 254 253 252 250 248 247 246 244 244 241 236 236 234 234 238 233 233 232 233 242 236 241 243 244 245 246 247 241 226 218 220 205 210 240
262 262 260 260 261 262 261 260 259 258 254 255 254 252 249 248 246 245 243 242 241 238 235 235 238 236 232 233 234 231 236 238 236 236 236 237 238 230 222 213 219 214 208 212 235
266 265 265 263 263 261 260 260 259 258 257 255 255 254 252 248 246 244 243 241 240 238 236 234 236 235 230 229 233 232 230 232 230 232 230 228 228 219 218 217 224 219 220 223 205
267 267 267 265 263 261 260 260 259 256 257 255 256 258 255 251 248 244 242 241 239 237 236 232 235 236 232 230 230 232 232 232 229 226 227 224 220 223 215 219 225 222 220 214 209
268 265 265 265 265 262 262 261 260 259 259 260 259 260 258 256 251 247 242 240 239 237 234 232 233 233 232 232 227 230 228 233 232 227 227 226 222 224 221 215 219 225 223 223 214
272 270 269 269 267 266 266 265 263 262 260 259 259 260 261 258 253 248 244 240 237 236 234 232 231 231 229 231 227 229 227 230 232 229 225 229 224 228 223 217 228 231 233 232 221
273 274 274 273 273 272 272 270 269 267 265 262 259 258 257 257 253 248 243 240 237 235 233 231 230 229 227 230 228 229 227 227 232 230 219 224 225 229 229 230 231 228 233 227 234
275 275 275 274 275 276 275 274 273 271 268 266 263 260 258 254 251 248 243 239 236 232 231 230 228 227 227 228 228 228 227 225 229 230 222 219 221 230 228 232 232 233 231 231 227
276 275 276 275 276 275 276 277 277 277 274 271 268 264 260 256 251 247 243 239 235 232 228 229 228 225 225 224 227 228 226 226 225 225 221 215 214 220 227 231 232 231 232 228 229
278 278 279 279 277 277 279 282 279 278 277 274 271 266 260 255 250 246 242 240 235 232 229 225 225 225 223 224 224 226 224 224 224 222 221 220 212 213 222 225 227 229 228 225 225
284 284 283 282 281 282 284 284 282 280 276 272 268 264 259 252 248 244 240 236 233 231 230 224 223 225 223 222 223 222 223 223 223 218 216 216 211 211 225 222 224 225 227 227 226
291 290 287 287 287 289 288 285 282 279 277 277 275 272 266 257 247 243 242 237 232 229 229 226 222 221 223 220 221 221 222 219 219 217 215 217 211 212 224 224 220 228 228 229 227
296 292 289 289 289 288 285 283 284 281 281 280 278 274 270 264 256 247 239 236 231 228 227 226 222 218 220 220 218 221 219 218 216 215 213 211 210 215 223 225 221 224 229 230 229
295 292 292 291 291 287 286 286 283 286 286 284 283 279 271 264 256 248 242 237 234 228 225 224 221 217 217 218 218 218 218 217 213 213 210 209 208 214 221 226 220 219 222 222 223
293 292 290 290 289 287 289 289 293 295 295 293 291 288 275 263 258 253 247 242 237 230 225 223 220 217 214 217 217 217 217 217 213 210 208 208 207 216 219 223 223 218 221 222 217
304 298 295 286 276 278 284 292 302 304 305 303 302 286 280 274 263 256 251 244 237 232 227 222 220 216 214 216 215 216 214 214 212 208 206 208 207 216 219 221 224 222 220 221 221
344 328 302 293 294 299 301 304 312 313 317 315 302 295 290 278 268 258 248 242 235 229 224 219 216 214 213 214 213 213 214 211 211 207 205 206 208 217 218 221 223 221 218 218 220
Height
10923 10925 10927 10928 10929 10931 10933 10935 10937 10939 10940 10943 10946 10949 10952 10953 10953 10956 10959 10962 10965 10967 10970 10973 10977 10981 10984 10987 10990 10992 10996 10997 10999 11001 11003 11003 11005 11007 11007 11007 11002 11004 11003 11002 11000
10915 10916 10918 10919 10921 10922 10925 10926 10929 10931 10933 10935 10938 10942 10945 10948 10948 10951 10954 10956 10958 10961 10965 10968 10972 10976 10979 10983 10987 10989 10992 10994 10995 10997 11000 11001 11002 11003 11004 11004 11004 11004 11002 11000 10999
10906 10907 10908 10910 10911 10912 10915 10917 10920 10922 10925 10927 10930 10934 10937 10941 10943 10946 10949 10951 10952 10955 10959 10963 10967 10972 10976 10979 10983 10987 10989 10991 10992 10994 10997 10997 10999 11001 11002 11002 11002 11001 11001 10999 10997
10897 10898 10899 10900 10901 10903 10905 10906 10909 10913 10916 10918 10921 10924 10929 10932 10935 10939 10942 10943 10944 10947 10951 10956 10960 10966 10970 10973 10976 10980 10984 10988 10989 10991 10992 10994 10995 10999 10999 11000 11000 11000 10998 10997 10995
10886 10886 10888 10889 10890 10892 10894 10896 10898 10902 10905 10906 10909 10913 10919 10923 10925 10929 10931 10936 10937 10940 10943 10948 10953 10959 10963 10967 10970 10973 10978 10981 10983 10987 10990 10991 10992 10994 10997 10998 10998 10998 10997 10996 10994
10874 10874 10875 10876 10878 10879 10880 10884 10886 10889 10892 10895 10897 10901 10906 10911 10913 10918 10921 10926 10930 10932 10935 10939 10946 10949 10953 10957 10962 10964 10969 10971 10976 10980 10984 10986 10987 10991 10993 10995 10996 10996 10995 10994 10992
10861 10861 10862 10863 10865 10865 10866 10869 10873 10876 10879 10883 10884 10887 10892 10896 10901 10906 10910 10916 10920 10924 10927 10930 10935 10940 10943 10948 10951 10955 10961 10964 10968 10972 10977 10980 10984 10987 10990 10992 10993 10993 10992 10992 10990
10848 10847 10847 10849 10850 10850 10852 10855 10859 10863 10865 10868 10871 10874 10877 10883 10887 10892 10897 10903 10909 10914 10918 10924 10928 10932 10936 10937 10941 10946 10948 10953 10958 10964 10967 10974 10977 10980 10984 10988 10989 10989 10989 10990 10988
10831 10833 10831 10831 10831 10832 10835 10838 10841 10847 10849 10851 10855 10858 10862 10866 10872 10876 10882 10889 10895 10901 10908 10914 10919 10922 10927 10931 10934 10935 10935 10944 10949 10956 10960 10964 10969 10974 10979 10982 10983 10984 10986 10987 10986
10813 10815 10815 10813 10813 10814 10817 10820 10822 10829 10832 10833 10836 10840 10845 10850 10855 10860 10864 10872 10880 10887 10896 10902 10906 10912 10914 10919 10921 10921 10925 10933 10937 10945 10952 10959 10964 10968 10973 10976 10978 10981 10983 10982 10984
10793 10795 10795 10794 10793 10794 10796 10799 10802 10807 10811 10813 10815 10820 10824 10830 10836 10842 10846 10854 10862 10874 10881 10885 10893 10896 10896 10904 10911 10918 10920 10927 10932 10939 10946 10951 10957 10963 10967 10970 10975 10978 10978 10979 10981
10775 10775 10776 10774 10774 10775 10774 10776 10778 10781 10791 10789 10789 10794 10800 10806 10814 10820 10827 10835 10843 10854 10861 10873 10880 10871 10887 10896 10901 10910 10913 10919 10925 10931 10937 10943 10949 10957 10961 10967 10970 10972 10973 10975 10977
10756 10754 10755 10755 10755 10755 10754 10754 10756 10757 10763 10767 10766 10765 10773 10780 10790 10797 10804 10813 10821 10832 10843 10854 10853 10864 10873 10883 10890 10897 10902 10903 10914 10922 10928 10937 10945 10952 10957 10961 10962 10968 10970 10972 10974
10738 10736 10734 10733 10733 10733 10732 10733 10733 10735 10738 10744 10743 10737 10744 10753 10762 10768 10780 10787 10798 10809 10819 10835 10836 10849 10859 10870 10877 10885 10884 10888 10900 10912 10919 10929 10939 10944 10953 10956 10957 10962 10965 10968 10971
10717 10715 10712 10710 10710 10709 10709 10709 10709 10709 10713 10716 10715 10712 10715 10725 10731 10739 10750 10762 10772 10784 10800 10816 10813 10826 10841 10847 10857 10862 10871 10873 10885 10903 10909 10922 10932 10939 10948 10950 10951 10955 10960 10964 10968
10700 10694 10691 10688 10687 10683 10685 10683 10682 10681 10682 10685 10686 10685 10685 10690 10700 10707 10717 10730 10741 10754 10772 10787 10793 10807 10824 10823 10837 10834 10854 10862 10871 10890 10908 10914 10926 10932 10940 10940 10944 10949 10955 10958 10962
10681 10674 10669 10666 10662 10658 10656 10655 10655 10653 10652 10655 10654 10653 10654 10656 10661 10672 10683 10693 10708 10723 10739 10756 10771 10783 10798 10800 10813 10821 10839 10848 10857 10878 10909 10903 10915 10919 10925 10931 10936 10943 10948 10953 10958
10658 10653 10648 10643 10639 10631 10627 10625 10624 10623 10622 10621 10621 10622 10621 10623 10628 10634 10645 10657 10670 10686 10704 10721 10737 10757 10771 10782 10795 10803 10815 10835 10847 10868 10884 10895 10910 10908 10911 10916 10928 10936 10941 10949 10953
10632 10627 10622 10618 10613 10607 10602 10600 10597 10592 10587 10587 10585 10587 10589 10589 10594 10601 10610 10622 10634 10647 10669 10685 10706 10726 10740 10751 10765 10781 10805 10826 10826 10844 10865 10886 10896 10890 10896 10906 10916 10926 10935 10941 10944
10605 10601 10598 10595 10588 10583 10579 10577 10572 10565 10561 10557 10553 10556 10558 10559 10561 10566 10577 10588 10602 10613 10630 10655 10675 10691 10711 10727 10742 10758 10780 10786 10809 10833 10854 10870 10883 10885 10880 10893 10902 10912 10923 10930 10936
10583 10580 10576 10570 10566 10564 10560 10555 10547 10542 10537 10533 10529 10528 10530 10533 10535 10538 10546 10555 10567 10580 10594 10618 10642 10658 10678 10701 10717 10735 10747 10774 10796 10817 10838 10851 10870 10872 10865 10876 10888 10899 10908 10917 10926
10566 10564 10558 10552 10549 10545 10539 10531 10526 10521 10516 10513 10509 10507 10505 10507 10511 10514 10517 10525 10535 10547 10561 10583 10610 10628 10647 10672 10686 10701 10730 10748 10767 10805 10824 10837 10853 10852 10845 10860 10875 10888 10897 10907 10918
10553 10548 10541 10539 10533 10527 10520 10515 10510 10505 10501 10498 10493 10489 10485 10484 10485 10486 10490 10492 10502 10516 10530 10547 10574 10600 10611 10632 10654 10672 10700 10728 10762 10782 10804 10821 10841 10837 10835 10844 10864 10879 10888 10899 10910
10534 10529 10526 10521 10515 10510 10506 10502 10497 10492 10486 10480 10473 10469 10464 10460 10457 10460 10463 10468 10473 10487 10499 10514 10538 10563 10580 10593 10620 10644 10676 10702 10737 10759 10790 10809 10821 10823 10825 10829 10849 10863 10872 10886 10899
10519 10516 10512 10509 10504 10499 10495 10490 10484 10477 10470 10461 10453 10447 10439 10435 10433 10435 10441 10445 10448 10461 10472 10484 10505 10530 10549 10566 10596 10624 10655 10687 10721 10749 10775 10791 10805 10805 10808 10814 10830 10849 10864 10877 10890
10508 10508 10506 10502 10498 10491 10486 10480 10473 10463 10454 10443 10435 10423 10418 10415 10414 10414 10418 10419 10426 10437 10447 10466 10486 10508 10528 10542 10572 10599 10631 10668 10702 10734 10760 10775 10790 10788 10792 10806 10821 10841 10857 10869 10881
10506 10503 10500 10495 10490 10485 10479 10470 10462 10454 10438 10428 10414 10406 10401 10398 10396 10396 10399 10400 10405 10414 10429 10447 10461 10482 10502 10513 10540 10575 10614 10651 10682 10715 10739 10758 10771 10768 10779 10797 10808 10824 10842 10857 10868